This demonstration page uses our WeatherBlox Daily Observations layout. Learn more.

Left ArrowRight Arrow

39.92423, -83.80882

Hourly Observations for March 25, 2017

Temp ( °F °C ) Dew Point ( °F °C ) Humidity (%) Winds ( mph kmh ) Pressure ( in mb ) Visibility ( mi km ) Precip ( " mm )
12:56 am 00:56 Clear 64 17.8 53 11.7 68 68 SW 13 20 30.11 1020 10 16.0934 0 0
1:56 am 01:56 Clear 63 17.2 53 11.7 70 70 SW 14 22 30.1 1019 10 16.0934 0 0
2:56 am 02:56 Clear 62 16.7 53 11.7 73 73 SSW 10 17 30.09 1019 10 16.0934 0 0
3:56 am 03:56 Clear 61 16.1 52 11.1 72 72 SSW 10 17 30.08 1019 10 16.0934 0 0
4:56 am 04:56 Clear 60 15.6 51 10.6 72 72 SSW 12 19 30.09 1019 10 16.0934 0 0
5:56 am 05:56 Clear 60 15.6 51 10.6 72 72 SSW 9 15 30.09 1019 10 16.0934 0 0
6:56 am 06:56 Clear 59 15 50 10 72 72 S 9 15 30.1 1019 10 16.0934 0 0
7:56 am 07:56 Sunny 59 15 49 9.4 69 69 S 9 15 30.12 1020 10 16.0934 0 0
9:56 am 09:56 Sunny 64 17.8 50 10 60 60 SSW 15 24 30.12 1020 10 16.0934 0 0
10:56 am 10:56 Partly Cloudy 69 20.6 52 11.1 55 55 SSW 20 31 30.11 1020 10 16.0934 0 0
11:56 am 11:56 Sunny 68 20 51 10.6 55 55 SSW 15 24 30.12 1020 10 16.0934 0 0
12:56 pm 12:56 Sunny 67 19.4 51 10.6 57 57 SW 15 24 30.11 1020 10 16.0934 0 0
1:56 pm 13:56 Sunny 69 20.6 52 11.1 55 55 SSW 12 19 30.1 1019 10 16.0934 0 0
2:56 pm 14:56 Sunny 72 22.2 53 11.7 52 52 S 14 22 30.08 1019 10 16.0934 0 0
3:56 pm 15:56 Sunny 73 22.8 53 11.7 50 50 SE 12 19 30.06 1018 10 16.0934 0 0
4:56 pm 16:56 Sunny 73 22.8 53 11.7 50 50 SSE 15 24 30.05 1018 10 16.0934 0 0
5:56 pm 17:56 Sunny 71 21.7 52 11.1 51 51 SSE 13 20 30.04 1017 10 16.0934 0 0
6:56 pm 18:56 Sunny 68 20 52 11.1 57 57 SE 9 15 30.05 1018 10 16.0934 0 0
7:56 pm 19:56 Clear 65 18.3 51 10.6 61 61 SE 10 17 30.05 1018 10 16.0934 0 0
8:56 pm 20:56 Clear 62 16.7 51 10.6 67 67 SE 9 15 30.05 1018 10 16.0934 0 0
9:56 pm 21:56 Clear 63 17.2 50 10 63 63 SE 10 17 30.05 1018 10 16.0934 0 0
10:56 pm 22:56 Partly Cloudy 62 16.7 50 10 65 65 SE 9 15 30.04 1017 10 16.0934 0 0
11:56 pm 23:56 Cloudy 62 16.7 50 10 65 65 SE 12 19 30.02 1017 10 16.0934 0 0

Powered by AerisWeather